CW2285 Weather Reports


Display with metric or nautical units.
time (UTC)temp
F
wind
direction
speed
MPH
gust
MPH
rain 1hr
in
rain 24hr
in
rain mn
in
humidity
%
barometer
mb
20260506091003 63 283 12.0 20.0 0.00 0.00 0.00 53 1012.0
20260506090503 63 295 10.0 22.0 0.00 0.00 0.00 53 1012.0
20260506090003 63 305 12.0 20.0 0.00 0.00 0.00 53 1012.0
20260506085503 63 285 12.0 21.0 0.00 0.00 0.00 52 1012.0
20260506084503 63 293 12.0 20.0 0.00 0.00 0.00 52 1012.0
20260506083504 63 293 10.0 23.0 0.00 0.00 0.00 51 1012.1
20260506083003 63 303 11.0 20.0 0.00 0.00 0.00 51 1012.1
20260506082503 64 300 10.0 21.0 0.00 0.00 0.00 50 1012.0
20260506082003 64 299 11.0 21.0 0.00 0.00 0.00 50 1012.1
20260506081503 64 304 7.0 17.0 0.00 0.00 0.00 50 1012.1
20260506080504 64 294 8.0 16.0 0.00 0.00 0.00 49 1012.2
20260506073503 64 285 8.0 16.0 0.00 0.00 0.00 49 1012.1
20260506072504 64 284 10.0 24.0 0.00 0.00 0.00 49 1012.0
20260506071503 64 302 12.0 20.0 0.00 0.00 0.00 48 1012.0
20260506071004 64 283 10.0 20.0 0.00 0.00 0.00 48 1012.0
20260506070504 64 296 14.0 22.0 0.00 0.00 0.00 48 1011.9
20260506062003 65 285 14.0 26.0 0.00 0.00 0.00 47 1011.4
20260506061503 65 292 12.0 24.0 0.00 0.00 0.00 47 1011.4
20260506060504 65 292 12.0 23.0 0.00 0.00 0.00 47 1011.1
20260506050503 66 297 12.0 24.0 0.00 0.00 0.00 45 1010.5
20260506045004 66 285 13.0 23.0 0.00 0.00 0.00 45 1010.4
20260506044503 66 286 14.0 22.0 0.00 0.00 0.00 45 1010.4
20260506043503 66 292 10.0 23.0 0.00 0.00 0.00 45 1010.2
20260506043004 66 288 10.0 20.0 0.00 0.00 0.00 45 1010.2
20260506042503 66 296 10.0 21.0 0.00 0.00 0.00 45 1010.2
20260506041503 66 276 13.0 22.0 0.00 0.00 0.00 44 1010.1
20260506041004 66 320 12.0 24.0 0.00 0.00 0.00 44 1009.9
20260506040504 67 305 12.0 25.0 0.00 0.00 0.00 44 1009.9
20260506040003 67 276 16.0 26.0 0.00 0.00 0.00 44 1009.8
20260506035503 67 297 11.0 23.0 0.00 0.00 0.00 44 1009.8
20260506035003 67 293 10.0 22.0 0.00 0.00 0.00 45 1009.7
20260506034503 67 315 10.0 22.0 0.00 0.00 0.00 44 1009.5
20260506034003 67 308 11.0 22.0 0.00 0.00 0.00 45 1009.5
20260506033003 67 293 11.0 28.0 0.00 0.00 0.00 45 1009.4
20260506031503 67 295 13.0 28.0 0.00 0.00 0.00 44 1009.3
20260506031003 67 303 14.0 26.0 0.00 0.00 0.00 44 1009.2
20260506030503 68 294 13.0 22.0 0.00 0.00 0.00 44 1009.1
20260506030003 68 289 14.0 22.0 0.00 0.00 0.00 43 1008.9
20260506025503 68 290 10.0 25.0 0.00 0.00 0.00 43 1008.8
20260506025003 68 297 14.0 22.0 0.00 0.00 0.00 43 1008.8
20260506023003 69 282 13.0 29.0 0.00 0.00 0.00 42 1008.4
20260506022503 69 293 16.0 25.0 0.00 0.00 0.00 41 1008.3
20260506022003 69 301 13.0 26.0 0.00 0.00 0.00 41 1008.3
20260506021503 70 297 14.0 23.0 0.00 0.00 0.00 41 1008.3
20260506021004 70 291 14.0 26.0 0.00 0.00 0.00 40 1008.3
20260506020503 70 295 14.0 26.0 0.00 0.00 0.00 40 1008.3
20260506015504 71 292 16.0 24.0 0.00 0.00 0.00 39 1008.1
20260506015003 71 296 14.0 26.0 0.00 0.00 0.00 39 1008.0
20260506014503 72 298 12.0 24.0 0.00 0.00 0.00 38 1007.9
20260506014004 72 279 15.0 23.0 0.00 0.00 0.00 37 1007.8
20260506013503 72 299 12.0 26.0 0.00 0.00 0.00 37 1007.8
20260506013003 73 292 14.0 23.0 0.00 0.00 0.00 36 1007.8
20260506012504 73 298 16.0 30.0 0.00 0.00 0.00 35 1007.8
20260506012004 73 297 10.0 20.0 0.00 0.00 0.00 35 1007.8
20260506011503 73 284 18.0 29.0 0.00 0.00 0.00 35 1007.8
20260506011004 74 305 14.0 25.0 0.00 0.00 0.00 34 1007.8
20260506010503 74 291 14.0 26.0 0.00 0.00 0.00 34 1007.8
20260506010003 74 294 13.0 25.0 0.00 0.00 0.00 34 1007.7
20260506005503 74 295 13.0 25.0 0.00 0.00 0.00 33 1007.8
20260506005003 74 303 15.0 25.0 0.00 0.00 0.00 32 1007.8
20260506004504 74 278 17.0 24.0 0.00 0.00 0.00 32 1007.7
20260506004004 75 287 17.0 28.0 0.00 0.00 0.00 32 1007.7
20260506003003 75 280 12.0 22.0 0.00 0.00 0.00 31 1007.7
20260506002503 75 289 16.0 25.0 0.00 0.00 0.00 31 1007.7
20260506002003 76 281 16.0 25.0 0.00 0.00 0.00 30 1007.7
20260506001504 76 289 11.0 22.0 0.00 0.00 0.00 30 1007.7
20260506001003 76 286 16.0 26.0 0.00 0.00 0.00 30 1007.7
20260506000004 77 285 14.0 25.0 0.00 0.00 0.00 28 1007.7
20260505235504 77 295 13.0 22.0 0.00 0.00 0.00 27 1007.7
20260505235004 77 291 9.0 22.0 0.00 0.00 0.00 27 1007.7
20260505234503 78 284 10.0 17.0 0.00 0.00 0.00 24 1007.7
20260505234004 77 282 12.0 20.0 0.00 0.00 0.00 26 1007.7
20260505233503 78 284 12.0 20.0 0.00 0.00 0.00 25 1007.7
20260505233004 77 284 14.0 23.0 0.00 0.00 0.00 25 1007.7
20260505232503 78 277 12.0 22.0 0.00 0.00 0.00 26 1007.7
20260505232004 78 286 10.0 21.0 0.00 0.00 0.00 25 1007.7
20260505231003 78 285 12.0 21.0 0.00 0.00 0.00 26 1007.8
20260505230504 78 283 12.0 20.0 0.00 0.00 0.00 25 1007.8
20260505225503 78 280 12.0 20.0 0.00 0.00 0.00 26 1007.8
20260505224503 78 287 12.0 21.0 0.00 0.00 0.00 25 1008.0
20260505224003 78 320 9.0 18.0 0.00 0.00 0.00 26 1008.1
20260505223504 78 282 8.0 14.0 0.00 0.00 0.00 25 1008.1
20260505223003 78 282 9.0 20.0 0.00 0.00 0.00 26 1008.2
20260505222504 78 295 10.0 22.0 0.00 0.00 0.00 26 1008.3
20260505222003 78 298 5.0 17.0 0.00 0.00 0.00 26 1008.3
20260505221503 79 293 6.0 17.0 0.00 0.00 0.00 26 1008.3
20260505221003 79 290 9.0 20.0 0.00 0.00 0.00 26 1008.3
20260505220504 79 290 10.0 16.0 0.00 0.00 0.00 25 1008.6
20260505215004 79 311 8.0 17.0 0.00 0.00 0.00 26 1008.7
20260505214503 79 294 10.0 21.0 0.00 0.00 0.00 25 1008.7
20260505214004 78 299 10.0 22.0 0.00 0.00 0.00 26 1008.8
20260505212503 78 318 7.0 15.0 0.00 0.00 0.00 26 1008.9
20260505212003 78 273 7.0 20.0 0.00 0.00 0.00 26 1008.9
20260505211503 79 313 6.0 12.0 0.00 0.00 0.00 26 1009.1
20260505211004 79 322 9.0 18.0 0.00 0.00 0.00 26 1009.1
20260505210504 79 310 9.0 15.0 0.00 0.00 0.00 27 1009.3
20260505210004 77 324 3.0 12.0 0.00 0.00 0.00 30 1009.3
20260505205003 77 303 7.0 20.0 0.00 0.00 0.00 29 1009.3
20260505204504 77 285 5.0 16.0 0.00 0.00 0.00 31 1009.3
20260505204004 77 256 6.0 13.0 0.00 0.00 0.00 30 1009.4
20260505203503 77 286 7.0 15.0 0.00 0.00 0.00 29 1009.4
20260505202503 77 294 9.0 16.0 0.00 0.00 0.00 29 1009.4
20260505202003 77 308 6.0 15.0 0.00 0.00 0.00 31 1009.4
20260505201504 77 303 8.0 17.0 0.00 0.00 0.00 30 1009.4
20260505200503 78 281 7.0 16.0 0.00 0.00 0.00 31 1009.5
20260505200004 77 343 3.0 14.0 0.00 0.00 0.00 31 1009.6
20260505195503 78 298 6.0 18.0 0.00 0.00 0.00 31 1009.6
20260505194503 76 286 8.0 15.0 0.00 0.00 0.00 33 1009.9
20260505194003 75 34 2.0 7.0 0.00 0.00 0.00 33 1009.9
20260505193503 74 327 2.0 7.0 0.00 0.00 0.00 36 1010.0
20260505193003 75 231 4.0 12.0 0.00 0.00 0.00 32 1010.0
20260505192504 76 271 5.0 10.0 0.00 0.00 0.00 35 1009.9
20260505192004 75 300 2.0 6.0 0.00 0.00 0.00 34 1010.1
20260505191503 76 320 5.0 12.0 0.00 0.00 0.00 35 1010.2
20260505190504 75 313 3.0 6.0 0.00 0.00 0.00 36 1010.2
20260505190004 74 283 5.0 9.0 0.00 0.00 0.00 35 1010.3
20260505185504 75 263 5.0 12.0 0.00 0.00 0.00 35 1010.3
20260505185004 75 284 6.0 13.0 0.00 0.00 0.00 35 1010.2
20260505184504 74 335 2.0 8.0 0.00 0.00 0.00 37 1010.3
20260505184004 74 292 3.0 10.0 0.00 0.00 0.00 36 1010.3
20260505183503 75 286 5.0 13.0 0.00 0.00 0.00 36 1010.2
20260505183004 74 309 4.0 8.0 0.00 0.00 0.00 37 1010.3
20260505182504 73 295 7.0 12.0 0.00 0.00 0.00 37 1010.3
20260505182003 73 287 4.0 9.0 0.00 0.00 0.00 37 1010.4
20260505181504 73 261 5.0 9.0 0.00 0.00 0.00 38 1010.3
20260505181003 72 272 3.0 3.0 0.00 0.00 0.00 39 1010.3
20260505180503 73 313 5.0 9.0 0.00 0.00 0.00 38 1010.4
20260505180003 73 299 2.0 7.0 0.00 0.00 0.00 37 1010.4
20260505175503 73 28 2.0 6.0 0.00 0.00 0.00 39 1010.4
20260505175003 73 277 3.0 6.0 0.00 0.00 0.00 39 1010.3
20260505174003 72 275 5.0 8.0 0.00 0.00 0.00 38 1010.2
20260505173503 72 298 3.0 6.0 0.00 0.00 0.00 40 1010.1
20260505173003 73 327 3.0 8.0 0.00 0.00 0.00 40 1010.1
20260505172503 73 301 6.0 12.0 0.00 0.00 0.00 40 1010.0
20260505172003 72 290 5.0 13.0 0.00 0.00 0.00 40 1010.0
20260505171503 72 252 6.0 15.0 0.00 0.00 0.00 40 1010.0
20260505171003 72 297 6.0 12.0 0.00 0.00 0.00 40 1010.1
20260505170503 72 312 3.0 10.0 0.00 0.00 0.00 41 1010.0
20260505170004 71 282 6.0 13.0 0.00 0.00 0.00 41 1010.0
20260505165503 71 332 3.0 7.0 0.00 0.00 0.00 42 1010.0
20260505165004 70 273 5.0 9.0 0.00 0.00 0.00 42 1010.1
20260505164503 70 284 5.0 12.0 0.00 0.00 0.00 43 1010.0
20260505164003 70 294 6.0 12.0 0.00 0.00 0.00 43 1009.9
20260505163503 69 313 3.0 10.0 0.00 0.00 0.00 44 1009.9
20260505162503 69 298 4.0 10.0 0.00 0.00 0.00 45 1009.9
20260505162004 68 307 4.0 10.0 0.00 0.00 0.00 46 1009.9
20260505161503 67 274 7.0 13.0 0.00 0.00 0.00 47 1009.9
20260505161004 67 298 6.0 12.0 0.00 0.00 0.00 48 1009.8
20260505160504 68 292 6.0 12.0 0.00 0.00 0.00 47 1009.8
20260505153003 66 293 6.0 13.0 0.00 0.00 0.00 49 1009.4
20260505152504 66 283 6.0 13.0 0.00 0.00 0.00 50 1009.4
20260505152004 65 302 3.0 7.0 0.00 0.00 0.00 51 1009.5
20260505151504 66 274 5.0 12.0 0.00 0.00 0.00 51 1009.5
20260505151004 66 270 6.0 10.0 0.00 0.00 0.00 52 1009.5
20260505150503 65 280 5.0 14.0 0.00 0.00 0.00 53 1009.4
20260505125004 60 307 6.0 14.0 0.00 0.00 0.00 59 1008.6
20260505124503 60 301 7.0 14.0 0.00 0.00 0.00 59 1008.6
20260505124003 60 302 7.0 13.0 0.00 0.00 0.00 59 1008.5
20260505123504 60 313 6.0 13.0 0.00 0.00 0.00 59 1008.5
20260505123003 60 300 9.0 17.0 0.00 0.00 0.00 59 1008.6
20260505122503 60 311 9.0 17.0 0.00 0.00 0.00 59 1008.6
20260505122003 60 298 7.0 15.0 0.00 0.00 0.00 59 1008.5
20260505121504 60 297 7.0 14.0 0.00 0.00 0.00 59 1008.5
20260505121004 60 297 9.0 16.0 0.00 0.00 0.00 59 1008.6
20260505120503 60 305 7.0 16.0 0.00 0.00 0.00 58 1008.6
20260505120005 61 301 9.0 14.0 0.00 0.00 0.00 58 1008.7
20260505115004 61 293 7.0 14.0 0.00 0.00 0.00 57 1008.8
20260505114504 61 288 7.0 15.0 0.00 0.00 0.00 57 1008.8
20260505114004 61 288 11.0 17.0 0.00 0.00 0.00 56 1008.8
20260505113503 61 287 8.0 14.0 0.00 0.00 0.00 55 1008.8
20260505113003 61 290 5.0 12.0 0.00 0.00 0.00 55 1008.8
20260505112504 61 301 6.0 10.0 0.00 0.00 0.00 55 1008.7
20260505112003 61 299 6.0 13.0 0.00 0.00 0.00 56 1008.7
20260505111503 61 294 7.0 12.0 0.00 0.00 0.00 56 1008.7
20260505111003 60 329 4.0 9.0 0.00 0.00 0.00 58 1008.7
20260505110504 60 317 3.0 9.0 0.00 0.00 0.00 58 1008.7
20260505101504 61 302 4.0 9.0 0.00 0.00 0.00 55 1008.6
20260505100004 61 308 6.0 12.0 0.00 0.00 0.00 56 1008.7
20260505095503 61 310 6.0 13.0 0.00 0.00 0.00 56 1008.8
20260505095004 61 314 4.0 8.0 0.00 0.00 0.00 56 1008.6
20260505094504 61 320 5.0 10.0 0.00 0.00 0.00 56 1008.5
20260505094004 61 300 3.0 12.0 0.00 0.00 0.00 56 1008.6
20260505093504 61 315 5.0 13.0 0.00 0.00 0.00 57 1008.7
20260505093004 61 303 5.0 9.0 0.00 0.00 0.00 57 1008.8
20260505092504 61 309 5.0 12.0 0.00 0.00 0.00 57 1008.8
20260505092003 61 291 6.0 14.0 0.00 0.00 0.00 56 1008.8
20260505091504 61 307 6.0 12.0 0.00 0.00 0.00 56 1008.8